Simultaneous Nadir Overpasses (SNOs) Predictions

Prediction of SNOs between AQUA and NOAA-19 Satellite Orbit:

Table of predicted SNOs for the next 14.0 days since TLE Epoch: 9/26/2014
Index Date (AQUA) Time (AQUA) Lat,Lon (AQUA) SZA (AQUA ) Date (NOAA-19) Time (NOAA-19) Lat,Lon (NOAA-19) SZA (NOAA-19 ) Distance(km) Time Diff (sec)
1 09/26/2014 18:25:44 78.36,-116.70 80.31 09/26/2014 18:25:02 78.37,-116.82 80.34 2.78 42
2 09/26/2014 19:15:01 -77.98, 52.77 100.16 09/26/2014 19:15:48 -77.99, 52.65 100.16 2.95 47
3 09/28/2014 23:10:28 79.44, 165.96 82.58 09/28/2014 23:09:14 79.31, 165.61 82.52 15.55 74
4 09/28/2014 23:59:20 -78.04, -18.59 99.25 09/28/2014 23:59:34 -78.03, -18.49 99.26 2.49 14
5 10/01/2014 04:43:43 -78.30, -90.89 98.09 10/01/2014 04:43:26 -78.31, -90.99 98.06 2.54 17
6 10/03/2014 09:28:02 -78.40,-162.49 97.11 10/03/2014 09:27:13 -78.40,-162.45 97.11 0.94 49
7 10/03/2014 10:17:18 77.92, 7.46 82.31 10/03/2014 10:18:08 77.92, 7.54 82.29 2.07 50
8 10/05/2014 15:01:39 78.15, -64.65 83.42 10/05/2014 15:01:58 78.14, -64.59 83.40 1.59 19
9 10/07/2014 19:45:57 78.26,-136.26 84.39 10/07/2014 19:45:45 78.25,-136.14 84.38 2.86 12
10 10/07/2014 20:33:26 -72.52, 48.43 101.87 10/07/2014 20:34:39 -72.77, 50.17 101.60 64.26 73
11 10/10/2014 00:30:17 78.48, 151.56 85.49 10/10/2014 00:29:35 78.48, 151.54 85.51 0.46 42




NCC Satellite Simultaneous Nadir Overpasses (SNOs) Prediction Service
